Time,TemperatureF,DewpointF,PressureIn,WindDirection,WindDirectionDegrees,WindSpeedMPH,WindSpeedGustMPH,Humidity,HourlyPrecipIn,Conditions,Clouds,dailyrainin,SolarRadiationWatts/m^2,SoftwareType,DateUTC
2013-01-31 00:03:00,44.1,38.7,30.27,NNE,25,3.0,4.0,81,0.00,,,0.01,0.0,meteohub,2013-01-31 08:03:00,
2013-01-31 00:08:00,44.1,38.7,30.27,NNE,25,2.0,5.0,81,0.00,,,0.00,0.0,meteohub,2013-01-31 08:08:00,
2013-01-31 00:13:00,44.1,38.7,30.27,NNE,25,2.0,5.0,81,0.00,,,0.00,0.0,meteohub,2013-01-31 08:13:00,
2013-01-31 00:18:00,43.9,38.5,30.27,NNE,25,0.0,5.0,81,0.00,,,0.00,0.0,meteohub,2013-01-31 08:18:00,
2013-01-31 00:24:00,43.9,38.5,30.27,NNE,25,0.0,4.0,81,0.00,,,0.00,0.0,meteohub,2013-01-31 08:24:00,
2013-01-31 00:29:00,43.9,38.5,30.27,NNE,25,3.0,4.0,81,0.00,,,0.00,0.0,meteohub,2013-01-31 08:29:00,
2013-01-31 00:34:00,43.9,38.5,30.27,NNE,24,3.0,4.0,81,0.00,,,0.00,0.0,meteohub,2013-01-31 08:34:00,
2013-01-31 00:39:00,43.9,38.5,30.27,NNE,24,2.0,4.0,81,0.00,,,0.00,0.0,meteohub,2013-01-31 08:39:00,
2013-01-31 00:44:00,43.5,38.1,30.27,NNE,24,2.0,6.0,81,0.00,,,0.00,0.0,meteohub,2013-01-31 08:44:00,
2013-01-31 00:49:00,43.5,38.1,30.27,NNE,24,0.0,6.0,81,0.00,,,0.00,0.0,meteohub,2013-01-31 08:49:00,
2013-01-31 00:54:00,43.5,38.1,30.27,NNE,24,0.0,6.0,81,0.00,,,0.00,0.0,meteohub,2013-01-31 08:54:00,
2013-01-31 00:59:00,43.3,37.9,30.27,NNE,24,2.0,4.0,81,0.00,,,0.00,0.0,meteohub,2013-01-31 08:59:00,
2013-01-31 01:04:00,43.3,37.9,30.27,NNE,24,0.0,4.0,81,0.00,,,0.00,0.0,meteohub,2013-01-31 09:04:00,
2013-01-31 01:09:00,43.3,37.9,30.27,NNE,24,3.0,3.0,81,0.00,,,0.00,0.0,meteohub,2013-01-31 09:09:00,
2013-01-31 01:14:00,43.3,37.9,30.26,NNE,24,2.0,4.0,81,0.00,,,0.00,0.0,meteohub,2013-01-31 09:14:00,
2013-01-31 01:19:00,43.3,37.9,30.26,NNE,24,2.0,4.0,81,0.00,,,0.00,0.0,meteohub,2013-01-31 09:19:00,
2013-01-31 01:24:00,43.3,37.9,30.27,NNE,24,3.0,4.0,81,0.00,,,0.00,0.0,meteohub,2013-01-31 09:24:00,
2013-01-31 01:29:00,43.2,37.8,30.27,NNE,24,0.0,4.0,81,0.00,,,0.00,0.0,meteohub,2013-01-31 09:29:00,
2013-01-31 01:34:00,43.2,37.8,30.27,NNE,24,0.0,4.0,81,0.00,,,0.00,0.0,meteohub,2013-01-31 09:34:00,
2013-01-31 01:39:00,43.2,37.8,30.27,NNE,24,0.0,3.0,81,0.00,,,0.00,0.0,meteohub,2013-01-31 09:39:00,
2013-01-31 01:44:00,43.2,37.8,30.27,NNE,24,0.0,4.0,81,0.00,,,0.00,0.0,meteohub,2013-01-31 09:44:00,
2013-01-31 01:49:00,43.0,37.6,30.27,NNE,24,0.0,4.0,81,0.00,,,0.00,0.0,meteohub,2013-01-31 09:49:00,
2013-01-31 01:54:00,43.0,37.6,30.26,NNE,24,0.0,4.0,81,0.00,,,0.00,0.0,meteohub,2013-01-31 09:54:00,
2013-01-31 01:59:00,42.6,37.6,30.27,NNE,24,0.0,4.0,82,0.00,,,0.00,0.0,meteohub,2013-01-31 09:59:00,
2013-01-31 02:04:00,42.6,37.6,30.27,NNE,23,3.0,4.0,82,0.00,,,0.00,0.0,meteohub,2013-01-31 10:04:00,
2013-01-31 02:09:00,42.6,37.6,30.27,NNE,22,1.0,4.0,82,0.00,,,0.00,0.0,meteohub,2013-01-31 10:09:00,
2013-01-31 02:14:00,42.6,37.6,30.27,NNE,22,0.0,5.0,82,0.00,,,0.00,0.0,meteohub,2013-01-31 10:14:00,
2013-01-31 02:19:00,42.6,37.6,30.27,NNE,23,0.0,5.0,82,0.00,,,0.00,0.0,meteohub,2013-01-31 10:19:00,
2013-01-31 02:24:00,42.8,37.8,30.27,NNE,22,2.0,5.0,82,0.00,,,0.00,0.0,meteohub,2013-01-31 10:24:00,
2013-01-31 02:29:00,43.0,37.9,30.27,NNE,23,0.0,5.0,82,0.00,,,0.00,0.0,meteohub,2013-01-31 10:29:00,
2013-01-31 02:34:00,42.8,37.8,30.27,NNE,23,0.0,5.0,82,0.00,,,0.00,0.0,meteohub,2013-01-31 10:34:00,
2013-01-31 02:39:00,42.6,37.6,30.27,NNE,22,0.0,5.0,82,0.00,,,0.00,0.0,meteohub,2013-01-31 10:39:00,
2013-01-31 02:44:00,42.4,37.6,30.27,NNE,23,0.0,3.0,83,0.00,,,0.00,0.0,meteohub,2013-01-31 10:44:00,
2013-01-31 02:49:00,42.4,37.6,30.27,NNE,23,0.0,3.0,83,0.00,,,0.00,0.0,meteohub,2013-01-31 10:49:00,
2013-01-31 02:54:00,42.3,37.4,30.27,NNE,22,0.0,3.0,83,0.00,,,0.00,0.0,meteohub,2013-01-31 10:54:00,
2013-01-31 02:59:00,42.3,37.4,30.27,NNE,23,0.0,3.0,83,0.00,,,0.00,0.0,meteohub,2013-01-31 10:59:00,
2013-01-31 03:04:00,42.1,37.6,30.26,NNE,22,0.0,3.0,84,0.00,,,0.00,0.0,meteohub,2013-01-31 11:04:00,
2013-01-31 03:09:00,42.1,37.6,30.26,NNE,23,0.0,3.0,84,0.00,,,0.00,0.0,meteohub,2013-01-31 11:09:00,
2013-01-31 03:14:00,41.9,37.4,30.26,NNE,22,0.0,3.0,84,0.00,,,0.00,0.0,meteohub,2013-01-31 11:14:00,
2013-01-31 03:19:00,41.7,37.2,30.26,NNE,22,0.0,5.0,84,0.00,,,0.00,0.0,meteohub,2013-01-31 11:19:00,
2013-01-31 03:24:00,41.7,37.2,30.26,NNE,22,1.0,5.0,84,0.00,,,0.00,0.0,meteohub,2013-01-31 11:24:00,
2013-01-31 03:29:00,41.7,37.2,30.25,NNE,22,0.0,5.0,84,0.00,,,0.00,0.0,meteohub,2013-01-31 11:29:00,
2013-01-31 03:34:00,41.7,37.2,30.25,NNE,22,0.0,4.0,84,0.00,,,0.00,0.0,meteohub,2013-01-31 11:34:00,
2013-01-31 03:39:00,41.5,37.0,30.25,NNE,22,0.0,4.0,84,0.00,,,0.00,0.0,meteohub,2013-01-31 11:39:00,
2013-01-31 03:44:00,41.5,37.0,30.25,NNE,22,0.0,4.0,84,0.00,,,0.00,0.0,meteohub,2013-01-31 11:44:00,
2013-01-31 03:50:00,41.4,36.9,30.25,NNE,22,0.0,3.0,84,0.00,,,0.00,0.0,meteohub,2013-01-31 11:50:00,
2013-01-31 03:55:00,41.2,36.7,30.25,NNE,22,0.0,3.0,84,0.00,,,0.00,0.0,meteohub,2013-01-31 11:55:00,
2013-01-31 04:00:00,41.0,36.5,30.25,NNE,22,0.0,1.0,84,0.00,,,0.00,0.0,meteohub,2013-01-31 12:00:00,
2013-01-31 04:05:00,41.0,36.9,30.25,NNE,22,2.0,3.0,85,0.00,,,0.00,0.0,meteohub,2013-01-31 12:05:00,
2013-01-31 04:10:00,41.2,37.0,30.25,NNE,22,0.0,5.0,85,0.00,,,0.00,0.0,meteohub,2013-01-31 12:10:00,
2013-01-31 04:15:00,41.2,37.0,30.25,NNE,22,2.0,5.0,85,0.00,,,0.00,0.0,meteohub,2013-01-31 12:15:00,
2013-01-31 04:20:00,41.4,37.2,30.25,NNE,22,0.0,5.0,85,0.00,,,0.00,0.0,meteohub,2013-01-31 12:20:00,
2013-01-31 04:25:00,41.5,37.4,30.25,NNE,21,2.0,5.0,85,0.00,,,0.00,0.0,meteohub,2013-01-31 12:25:00,
2013-01-31 04:30:00,41.5,37.0,30.25,NNE,22,0.0,5.0,84,0.00,,,0.00,0.0,meteohub,2013-01-31 12:30:00,
2013-01-31 04:35:00,41.5,37.0,30.25,NNE,21,0.0,4.0,84,0.00,,,0.00,0.0,meteohub,2013-01-31 12:35:00,
2013-01-31 04:40:00,41.5,37.0,30.24,NNE,22,0.0,3.0,84,0.00,,,0.00,0.0,meteohub,2013-01-31 12:40:00,
2013-01-31 04:45:00,41.4,36.9,30.24,NNE,21,0.0,3.0,84,0.00,,,0.00,0.0,meteohub,2013-01-31 12:45:00,
2013-01-31 04:50:00,41.4,37.2,30.24,NNE,21,4.0,4.0,85,0.00,,,0.00,0.0,meteohub,2013-01-31 12:50:00,
2013-01-31 04:55:00,41.4,37.2,30.24,NNE,21,0.0,6.0,85,0.00,,,0.00,0.0,meteohub,2013-01-31 12:55:00,
2013-01-31 05:00:00,41.5,37.4,30.24,NNE,21,0.0,6.0,85,0.00,,,0.00,0.0,meteohub,2013-01-31 13:00:00,
2013-01-31 05:05:00,41.5,37.6,30.24,NNE,21,0.0,6.0,86,0.00,,,0.00,0.0,meteohub,2013-01-31 13:05:00,
2013-01-31 05:10:00,41.7,37.8,30.24,NNE,21,0.0,5.0,86,0.00,,,0.00,0.0,meteohub,2013-01-31 13:10:00,
2013-01-31 05:15:00,41.7,37.6,30.24,NNE,21,0.0,4.0,85,0.00,,,0.00,0.0,meteohub,2013-01-31 13:15:00,
2013-01-31 05:20:00,41.7,37.6,30.24,NNE,21,0.0,4.0,85,0.00,,,0.00,0.0,meteohub,2013-01-31 13:20:00,
2013-01-31 05:25:00,41.5,37.4,30.24,NNE,21,0.0,3.0,85,0.00,,,0.00,0.0,meteohub,2013-01-31 13:25:00,
2013-01-31 05:30:00,41.4,37.2,30.24,NNE,21,0.0,2.0,85,0.00,,,0.00,0.0,meteohub,2013-01-31 13:30:00,
2013-01-31 05:35:00,41.2,37.0,30.24,NNE,21,0.0,2.0,85,0.00,,,0.00,0.0,meteohub,2013-01-31 13:35:00,
2013-01-31 05:40:00,41.0,36.9,30.24,NNE,21,2.0,3.0,85,0.00,,,0.00,0.0,meteohub,2013-01-31 13:40:00,
2013-01-31 05:45:00,41.0,36.9,30.24,NNE,21,0.0,3.0,85,0.00,,,0.00,0.0,meteohub,2013-01-31 13:45:00,
2013-01-31 05:50:00,40.8,36.7,30.24,NNE,21,0.0,3.0,85,0.00,,,0.00,0.0,meteohub,2013-01-31 13:50:00,
2013-01-31 05:55:00,40.6,36.5,30.24,NNE,21,0.0,3.0,85,0.00,,,0.00,0.0,meteohub,2013-01-31 13:55:00,
2013-01-31 06:00:00,40.5,36.3,30.23,NNE,21,0.0,3.0,85,0.00,,,0.00,0.0,meteohub,2013-01-31 14:00:00,
2013-01-31 06:05:00,40.3,36.1,30.23,NNE,21,0.0,0.0,85,0.00,,,0.00,0.0,meteohub,2013-01-31 14:05:00,
2013-01-31 06:10:00,40.1,36.3,30.23,NNE,21,1.0,0.0,86,0.00,,,0.00,0.0,meteohub,2013-01-31 14:10:00,
2013-01-31 06:15:00,40.3,36.5,30.23,NNE,21,1.0,0.0,86,0.00,,,0.00,0.0,meteohub,2013-01-31 14:15:00,
2013-01-31 06:20:00,40.5,36.7,30.23,NNE,19,0.0,3.0,86,0.00,,,0.00,0.0,meteohub,2013-01-31 14:20:00,
2013-01-31 06:25:00,40.3,36.7,30.23,NNE,21,0.0,3.0,87,0.00,,,0.00,0.0,meteohub,2013-01-31 14:25:00,
2013-01-31 06:30:00,40.5,36.9,30.24,NNE,21,0.0,3.0,87,0.00,,,0.00,0.0,meteohub,2013-01-31 14:30:00,
2013-01-31 06:35:00,40.5,36.9,30.23,NNE,21,0.0,2.0,87,0.00,,,0.00,0.0,meteohub,2013-01-31 14:35:00,
2013-01-31 06:40:00,40.5,36.9,30.24,NNE,21,0.0,2.0,87,0.00,,,0.00,0.0,meteohub,2013-01-31 14:40:00,
2013-01-31 06:45:00,40.5,36.9,30.24,NNE,21,0.0,0.0,87,0.00,,,0.00,0.0,meteohub,2013-01-31 14:45:00,
2013-01-31 06:50:00,40.5,36.9,30.24,NNE,21,0.0,1.0,87,0.00,,,0.00,0.0,meteohub,2013-01-31 14:50:00,
2013-01-31 06:55:00,40.6,37.4,30.24,NNE,21,0.0,3.0,88,0.00,,,0.00,0.0,meteohub,2013-01-31 14:55:00,
2013-01-31 07:00:00,40.6,37.4,30.24,NNE,21,0.0,4.0,88,0.00,,,0.00,0.0,meteohub,2013-01-31 15:00:00,
2013-01-31 07:05:00,40.6,37.4,30.24,NNE,19,0.0,4.0,88,0.00,,,0.00,0.0,meteohub,2013-01-31 15:05:00,
2013-01-31 07:10:00,40.6,37.0,30.25,NNE,21,0.0,2.0,87,0.00,,,0.00,5.0,meteohub,2013-01-31 15:10:00,
2013-01-31 07:15:00,40.5,36.9,30.25,NNE,21,0.0,0.0,87,0.00,,,0.00,7.0,meteohub,2013-01-31 15:15:00,
2013-01-31 07:20:00,40.3,36.7,30.25,NNE,20,0.0,0.0,87,0.00,,,0.00,11.0,meteohub,2013-01-31 15:20:00,
2013-01-31 07:25:00,40.3,37.0,30.24,NNE,20,0.0,0.0,88,0.00,,,0.00,12.0,meteohub,2013-01-31 15:25:00,
2013-01-31 07:30:00,40.1,36.9,30.25,NNE,21,0.0,0.0,88,0.00,,,0.00,25.0,meteohub,2013-01-31 15:30:00,
2013-01-31 07:35:00,39.7,36.1,30.25,NNE,20,0.0,0.0,87,0.00,,,0.00,39.0,meteohub,2013-01-31 15:35:00,
2013-01-31 07:40:00,39.9,36.7,30.25,NNE,20,0.0,0.0,88,0.00,,,0.00,53.0,meteohub,2013-01-31 15:40:00,
2013-01-31 07:45:00,40.5,37.4,30.25,NNE,21,0.0,0.0,89,0.00,,,0.00,65.0,meteohub,2013-01-31 15:45:00,
2013-01-31 07:50:00,40.8,37.8,30.25,NNE,21,0.0,2.0,89,0.00,,,0.00,81.0,meteohub,2013-01-31 15:50:00,
2013-01-31 07:56:00,41.5,38.5,30.25,NNE,21,0.0,2.0,89,0.00,,,0.00,97.0,meteohub,2013-01-31 15:56:00,
2013-01-31 08:01:00,42.1,39.0,30.25,NNE,19,0.0,2.0,89,0.00,,,0.00,114.0,meteohub,2013-01-31 16:01:00,
2013-01-31 08:06:00,42.4,39.4,30.25,NNE,21,0.0,1.0,89,0.00,,,0.00,132.0,meteohub,2013-01-31 16:06:00,
2013-01-31 08:11:00,43.5,40.8,30.25,NNE,21,0.0,1.0,90,0.00,,,0.00,149.0,meteohub,2013-01-31 16:11:00,
2013-01-31 08:16:00,44.2,41.2,30.25,NNE,21,0.0,1.0,89,0.00,,,0.00,169.0,meteohub,2013-01-31 16:16:00,
2013-01-31 08:21:00,45.0,41.9,30.25,NNE,20,0.0,0.0,89,0.00,,,0.00,188.0,meteohub,2013-01-31 16:21:00,
2013-01-31 08:26:00,45.7,42.3,30.25,NNE,21,0.0,2.0,88,0.00,,,0.00,206.0,meteohub,2013-01-31 16:26:00,
2013-01-31 08:31:00,46.2,42.6,30.25,NNE,19,0.0,2.0,87,0.00,,,0.00,227.0,meteohub,2013-01-31 16:31:00,
2013-01-31 08:36:00,46.8,42.8,30.25,NNE,21,2.0,3.0,86,0.00,,,0.00,246.0,meteohub,2013-01-31 16:36:00,
2013-01-31 08:41:00,47.7,43.3,30.25,NNE,21,0.0,3.0,85,0.00,,,0.00,264.0,meteohub,2013-01-31 16:41:00,
2013-01-31 08:46:00,48.6,43.9,30.25,NNE,21,1.0,3.0,84,0.00,,,0.00,281.0,meteohub,2013-01-31 16:46:00,
2013-01-31 08:51:00,48.9,43.7,30.25,NNE,21,0.0,2.0,82,0.00,,,0.00,297.0,meteohub,2013-01-31 16:51:00,
2013-01-31 08:56:00,49.5,43.9,30.25,NNE,21,0.0,2.0,81,0.00,,,0.00,315.0,meteohub,2013-01-31 16:56:00,
2013-01-31 09:01:00,50.4,44.4,30.25,NNE,21,0.0,2.0,80,0.00,,,0.00,330.0,meteohub,2013-01-31 17:01:00,
2013-01-31 09:06:00,51.1,44.4,30.25,NNE,20,0.0,2.0,78,0.00,,,0.00,343.0,meteohub,2013-01-31 17:06:00,
2013-01-31 09:11:00,51.8,44.8,30.26,NNE,19,0.0,2.0,77,0.00,,,0.00,360.0,meteohub,2013-01-31 17:11:00,
2013-01-31 09:16:00,52.9,44.8,30.26,NNE,19,0.0,2.0,74,0.00,,,0.00,374.0,meteohub,2013-01-31 17:16:00,
2013-01-31 09:21:00,53.4,45.0,30.26,NNE,21,0.0,2.0,73,0.00,,,0.00,390.0,meteohub,2013-01-31 17:21:00,
2013-01-31 09:26:00,54.0,45.1,30.25,NNE,20,0.0,1.0,72,0.00,,,0.00,406.0,meteohub,2013-01-31 17:26:00,
2013-01-31 09:31:00,54.1,44.6,30.26,NNE,21,0.0,3.0,70,0.00,,,0.00,420.0,meteohub,2013-01-31 17:31:00,
2013-01-31 09:36:00,54.1,44.6,30.26,NNE,21,2.0,3.0,70,0.00,,,0.00,434.0,meteohub,2013-01-31 17:36:00,
2013-01-31 09:41:00,54.5,45.0,30.26,NNE,21,0.0,3.0,70,0.00,,,0.00,450.0,meteohub,2013-01-31 17:41:00,
2013-01-31 09:46:00,54.9,45.0,30.26,NNE,21,0.0,3.0,69,0.00,,,0.00,461.0,meteohub,2013-01-31 17:46:00,
2013-01-31 09:51:00,55.2,45.7,30.26,NNE,21,1.0,4.0,70,0.00,,,0.00,473.0,meteohub,2013-01-31 17:51:00,
2013-01-31 09:56:00,55.2,45.7,30.26,NNE,21,0.0,4.0,70,0.00,,,0.00,485.0,meteohub,2013-01-31 17:56:00,
2013-01-31 10:01:00,55.6,45.5,30.26,NNE,21,0.0,4.0,69,0.00,,,0.00,499.0,meteohub,2013-01-31 18:01:00,
2013-01-31 10:06:00,55.9,45.5,30.26,NNE,21,0.0,3.0,68,0.00,,,0.00,515.0,meteohub,2013-01-31 18:06:00,
2013-01-31 10:11:00,55.9,45.1,30.26,NNE,21,0.0,4.0,67,0.00,,,0.00,524.0,meteohub,2013-01-31 18:11:00,
2013-01-31 10:16:00,56.5,45.7,30.26,NNE,21,0.0,4.0,67,0.00,,,0.00,536.0,meteohub,2013-01-31 18:16:00,
2013-01-31 10:21:00,56.8,46.0,30.26,NNE,21,2.0,4.0,67,0.00,,,0.00,545.0,meteohub,2013-01-31 18:21:00,
2013-01-31 10:26:00,57.7,46.0,30.25,NNE,21,0.0,3.0,65,0.00,,,0.00,557.0,meteohub,2013-01-31 18:26:00,
2013-01-31 10:31:00,57.9,45.9,30.25,NNE,21,0.0,3.0,64,0.00,,,0.00,568.0,meteohub,2013-01-31 18:31:00,
2013-01-31 10:36:00,58.5,45.9,30.25,NNE,21,2.0,3.0,63,0.00,,,0.00,577.0,meteohub,2013-01-31 18:36:00,
2013-01-31 10:41:00,58.6,45.7,30.25,NNE,21,0.0,3.0,62,0.00,,,0.00,587.0,meteohub,2013-01-31 18:41:00,
2013-01-31 10:46:00,59.4,46.4,30.25,NNE,21,0.0,3.0,62,0.00,,,0.00,596.0,meteohub,2013-01-31 18:46:00,
2013-01-31 10:51:00,59.4,45.9,30.25,NNE,21,0.0,4.0,61,0.00,,,0.00,605.0,meteohub,2013-01-31 18:51:00,
2013-01-31 10:56:00,60.1,46.2,30.25,NNE,21,0.0,4.0,60,0.00,,,0.00,613.0,meteohub,2013-01-31 18:56:00,
2013-01-31 11:01:00,60.3,46.8,30.25,NE,42,0.0,4.0,61,0.00,,,0.00,619.0,meteohub,2013-01-31 19:01:00,
2013-01-31 11:06:00,60.6,46.2,30.25,NE,46,0.0,5.0,59,0.00,,,0.00,628.0,meteohub,2013-01-31 19:06:00,
2013-01-31 11:11:00,60.8,45.9,30.25,South,180,4.0,5.0,58,0.00,,,0.00,635.0,meteohub,2013-01-31 19:11:00,
2013-01-31 11:16:00,60.6,45.7,30.25,South,183,0.0,6.0,58,0.00,,,0.00,642.0,meteohub,2013-01-31 19:16:00,
2013-01-31 11:21:00,60.4,44.6,30.25,SSW,196,2.0,6.0,56,0.00,,,0.00,649.0,meteohub,2013-01-31 19:21:00,
2013-01-31 11:26:00,60.1,44.4,30.25,SSW,192,1.0,6.0,56,0.00,,,0.00,652.0,meteohub,2013-01-31 19:26:00,
2013-01-31 11:31:00,60.3,44.1,30.25,South,190,2.0,6.0,55,0.00,,,0.00,659.0,meteohub,2013-01-31 19:31:00,
2013-01-31 11:36:00,60.3,43.5,30.24,South,187,2.0,6.0,54,0.00,,,0.00,663.0,meteohub,2013-01-31 19:36:00,
2013-01-31 11:41:00,61.2,44.8,30.24,South,187,0.0,5.0,55,0.00,,,0.00,666.0,meteohub,2013-01-31 19:41:00,
2013-01-31 11:46:00,61.2,44.8,30.24,SSW,210,1.0,5.0,55,0.00,,,0.00,671.0,meteohub,2013-01-31 19:46:00,
2013-01-31 11:51:00,61.7,45.0,30.23,WSW,257,0.0,5.0,54,0.00,,,0.00,673.0,meteohub,2013-01-31 19:51:00,
2013-01-31 11:56:00,62.2,45.0,30.23,WSW,244,0.0,5.0,53,0.00,,,0.00,677.0,meteohub,2013-01-31 19:56:00,
2013-01-31 12:01:00,62.8,45.0,30.23,WSW,244,3.0,5.0,52,0.00,,,0.00,679.0,meteohub,2013-01-31 20:01:00,
2013-01-31 12:06:00,62.8,45.3,30.23,WSW,244,1.0,4.0,53,0.00,,,0.00,679.0,meteohub,2013-01-31 20:06:00,
2013-01-31 12:11:00,62.2,45.0,30.22,WSW,241,0.0,5.0,53,0.00,,,0.00,680.0,meteohub,2013-01-31 20:11:00,
2013-01-31 12:16:00,62.8,45.3,30.22,WSW,242,0.0,5.0,53,0.00,,,0.00,682.0,meteohub,2013-01-31 20:16:00,
2013-01-31 12:21:00,63.3,45.0,30.22,WSW,250,2.0,5.0,51,0.00,,,0.00,682.0,meteohub,2013-01-31 20:21:00,
2013-01-31 12:26:00,63.1,44.8,30.22,SW,222,4.0,5.0,51,0.00,,,0.00,682.0,meteohub,2013-01-31 20:26:00,
2013-01-31 12:31:00,63.0,45.5,30.22,SW,228,0.0,5.0,53,0.00,,,0.00,682.0,meteohub,2013-01-31 20:31:00,
2013-01-31 12:36:00,63.3,45.9,30.22,SW,225,4.0,5.0,53,0.00,,,0.00,680.0,meteohub,2013-01-31 20:36:00,
2013-01-31 12:41:00,63.7,46.8,30.22,WSW,242,3.0,5.0,54,0.00,,,0.00,677.0,meteohub,2013-01-31 20:41:00,
2013-01-31 12:46:00,63.1,47.7,30.21,SW,217,0.0,7.0,57,0.00,,,0.00,675.0,meteohub,2013-01-31 20:46:00,
2013-01-31 12:51:00,61.5,47.5,30.21,SSW,205,3.0,7.0,60,0.00,,,0.00,673.0,meteohub,2013-01-31 20:51:00,
2013-01-31 12:56:00,61.5,48.0,30.21,SW,229,2.0,8.0,61,0.00,,,0.00,670.0,meteohub,2013-01-31 20:56:00,
2013-01-31 13:01:00,62.1,48.0,30.21,SW,218,2.0,8.0,60,0.00,,,0.00,666.0,meteohub,2013-01-31 21:01:00,
2013-01-31 13:06:00,62.2,48.6,30.20,SW,214,3.0,7.0,61,0.00,,,0.00,663.0,meteohub,2013-01-31 21:06:00,
2013-01-31 13:11:00,63.1,48.2,30.20,WSW,243,1.0,5.0,58,0.00,,,0.00,657.0,meteohub,2013-01-31 21:11:00,
2013-01-31 13:16:00,63.7,47.3,30.20,SW,235,4.0,5.0,55,0.00,,,0.00,654.0,meteohub,2013-01-31 21:16:00,
2013-01-31 13:21:00,64.2,47.7,30.19,SW,223,2.0,5.0,55,0.00,,,0.00,647.0,meteohub,2013-01-31 21:21:00,
2013-01-31 13:26:00,64.6,46.6,30.19,SW,221,2.0,5.0,52,0.00,,,0.00,642.0,meteohub,2013-01-31 21:26:00,
2013-01-31 13:31:00,64.2,45.1,30.19,SW,230,2.0,6.0,50,0.00,,,0.00,638.0,meteohub,2013-01-31 21:31:00,
2013-01-31 13:36:00,64.0,43.9,30.19,SSW,211,3.0,7.0,48,0.00,,,0.00,631.0,meteohub,2013-01-31 21:36:00,
2013-01-31 13:41:00,63.9,44.8,30.18,SSW,201,4.0,7.0,50,0.00,,,0.00,622.0,meteohub,2013-01-31 21:41:00,
2013-01-31 13:46:00,64.6,46.0,30.18,SW,214,4.0,7.0,51,0.00,,,0.00,615.0,meteohub,2013-01-31 21:46:00,
2013-01-31 13:51:00,64.8,45.7,30.18,SW,225,2.0,7.0,50,0.00,,,0.00,606.0,meteohub,2013-01-31 21:51:00,
2013-01-31 13:56:00,65.5,46.9,30.18,SSW,213,5.0,5.0,51,0.00,,,0.00,599.0,meteohub,2013-01-31 21:56:00,
2013-01-31 14:01:00,64.6,46.0,30.18,SSW,205,3.0,7.0,51,0.00,,,0.00,591.0,meteohub,2013-01-31 22:01:00,
2013-01-31 14:06:00,64.2,45.7,30.18,SW,221,7.0,7.0,51,0.00,,,0.00,582.0,meteohub,2013-01-31 22:06:00,
2013-01-31 14:11:00,64.0,45.5,30.18,SSW,213,0.0,8.0,51,0.00,,,0.00,571.0,meteohub,2013-01-31 22:11:00,
2013-01-31 14:16:00,64.2,46.2,30.18,SSW,210,6.0,8.0,52,0.00,,,0.00,561.0,meteohub,2013-01-31 22:16:00,
2013-01-31 14:21:00,64.6,46.0,30.18,SW,214,1.0,8.0,51,0.00,,,0.00,552.0,meteohub,2013-01-31 22:21:00,
2013-01-31 14:26:00,65.7,47.1,30.18,SSW,211,3.0,8.0,51,0.00,,,0.00,540.0,meteohub,2013-01-31 22:26:00,
2013-01-31 14:31:00,65.8,46.8,30.18,SW,217,2.0,7.0,50,0.00,,,0.00,529.0,meteohub,2013-01-31 22:31:00,
2013-01-31 14:36:00,66.7,46.4,30.17,SW,227,1.0,7.0,48,0.00,,,0.00,520.0,meteohub,2013-01-31 22:36:00,
2013-01-31 14:41:00,66.7,46.4,30.18,SSW,210,0.0,7.0,48,0.00,,,0.00,508.0,meteohub,2013-01-31 22:41:00,
2013-01-31 14:46:00,66.9,46.6,30.17,SW,227,0.0,6.0,48,0.00,,,0.00,497.0,meteohub,2013-01-31 22:46:00,
2013-01-31 14:51:00,67.5,46.6,30.17,SW,229,0.0,6.0,47,0.00,,,0.00,483.0,meteohub,2013-01-31 22:51:00,
2013-01-31 14:56:00,68.2,46.6,30.17,WSW,249,0.0,5.0,46,0.00,,,0.00,469.0,meteohub,2013-01-31 22:56:00,
2013-01-31 15:01:00,68.5,46.4,30.17,WSW,249,1.0,4.0,45,0.00,,,0.00,455.0,meteohub,2013-01-31 23:01:00,
2013-01-31 15:06:00,68.5,45.7,30.17,WSW,249,0.0,4.0,44,0.00,,,0.00,441.0,meteohub,2013-01-31 23:06:00,
2013-01-31 15:11:00,68.5,45.7,30.17,WSW,246,0.0,4.0,44,0.00,,,0.00,429.0,meteohub,2013-01-31 23:11:00,
2013-01-31 15:16:00,68.4,45.7,30.17,WSW,239,0.0,4.0,44,0.00,,,0.00,415.0,meteohub,2013-01-31 23:16:00,
2013-01-31 15:21:00,68.5,45.7,30.17,WSW,244,2.0,6.0,44,0.00,,,0.00,403.0,meteohub,2013-01-31 23:21:00,
2013-01-31 15:26:00,68.7,45.9,30.17,WSW,242,0.0,6.0,44,0.00,,,0.00,385.0,meteohub,2013-01-31 23:26:00,
2013-01-31 15:31:00,69.3,46.4,30.17,WSW,240,1.0,6.0,44,0.00,,,0.00,369.0,meteohub,2013-01-31 23:31:00,
2013-01-31 15:36:00,69.3,45.9,30.17,WSW,241,0.0,4.0,43,0.00,,,0.00,355.0,meteohub,2013-01-31 23:36:00,
2013-01-31 15:42:00,69.1,45.7,30.17,WSW,242,2.0,4.0,43,0.00,,,0.00,339.0,meteohub,2013-01-31 23:42:00,
2013-01-31 15:47:00,69.3,46.4,30.16,West,264,0.0,4.0,44,0.00,,,0.00,323.0,meteohub,2013-01-31 23:47:00,
2013-01-31 15:52:00,69.6,46.2,30.16,West,264,0.0,6.0,43,0.00,,,0.00,309.0,meteohub,2013-01-31 23:52:00,
2013-01-31 15:57:00,69.6,46.2,30.16,WSW,256,0.0,6.0,43,0.00,,,0.00,294.0,meteohub,2013-01-31 23:57:00,
2013-01-31 16:02:00,69.4,46.0,30.16,WSW,256,0.0,4.0,43,0.00,,,0.00,278.0,meteohub,2013-02-01 00:02:00,
2013-01-31 16:07:00,69.1,45.7,30.16,WSW,252,0.0,4.0,43,0.00,,,0.00,258.0,meteohub,2013-02-01 00:07:00,
2013-01-31 16:11:00,68.7,46.6,30.16,SW,226,0.0,4.0,45,0.00,,,0.00,241.0,meteohub,2013-02-01 00:11:00,
2013-01-31 16:17:00,68.4,46.8,30.16,SW,223,1.0,5.0,46,0.00,,,0.00,220.0,meteohub,2013-02-01 00:17:00,
2013-01-31 16:22:00,68.5,46.9,30.16,SW,223,0.0,5.0,46,0.00,,,0.00,197.0,meteohub,2013-02-01 00:22:00,
2013-01-31 16:27:00,68.5,46.4,30.16,SW,230,1.0,4.0,45,0.00,,,0.00,181.0,meteohub,2013-02-01 00:27:00,
2013-01-31 16:32:00,68.4,46.2,30.16,SW,231,0.0,4.0,45,0.00,,,0.00,162.0,meteohub,2013-02-01 00:32:00,
2013-01-31 16:37:00,68.0,45.9,30.16,SW,230,0.0,4.0,45,0.00,,,0.00,123.0,meteohub,2013-02-01 00:37:00,
2013-01-31 16:42:00,68.2,46.0,30.16,SW,230,0.0,4.0,45,0.00,,,0.00,114.0,meteohub,2013-02-01 00:42:00,
2013-01-31 16:47:00,68.2,46.6,30.16,SW,231,2.0,3.0,46,0.00,,,0.00,60.0,meteohub,2013-02-01 00:47:00,
2013-01-31 16:52:00,67.6,46.8,30.15,SW,230,0.0,2.0,47,0.00,,,0.00,40.0,meteohub,2013-02-01 00:52:00,
2013-01-31 16:57:00,67.3,46.9,30.15,SW,230,3.0,3.0,48,0.00,,,0.00,54.0,meteohub,2013-02-01 00:57:00,
2013-01-31 17:02:00,66.7,46.4,30.15,SW,230,0.0,4.0,48,0.00,,,0.00,51.0,meteohub,2013-02-01 01:02:00,
2013-01-31 17:07:00,66.6,47.3,30.15,SW,231,0.0,4.0,50,0.00,,,0.00,23.0,meteohub,2013-02-01 01:07:00,
2013-01-31 17:12:00,66.4,47.1,30.15,SW,231,0.0,4.0,50,0.00,,,0.00,18.0,meteohub,2013-02-01 01:12:00,
2013-01-31 17:17:00,66.4,47.7,30.15,SW,231,0.0,1.0,51,0.00,,,0.00,14.0,meteohub,2013-02-01 01:17:00,
2013-01-31 17:22:00,66.4,47.7,30.15,SW,230,0.0,1.0,51,0.00,,,0.00,11.0,meteohub,2013-02-01 01:22:00,
2013-01-31 17:27:00,66.0,47.3,30.15,SW,231,0.0,0.0,51,0.00,,,0.00,9.0,meteohub,2013-02-01 01:27:00,
2013-01-31 17:32:00,65.8,47.7,30.15,SW,231,0.0,0.0,52,0.00,,,0.00,7.0,meteohub,2013-02-01 01:32:00,
2013-01-31 17:37:00,65.7,47.5,30.15,SW,230,0.0,0.0,52,0.00,,,0.00,0.0,meteohub,2013-02-01 01:37:00,
2013-01-31 17:42:00,65.5,47.8,30.15,SW,231,0.0,0.0,53,0.00,,,0.00,0.0,meteohub,2013-02-01 01:42:00,
2013-01-31 17:47:00,65.1,47.5,30.15,SW,231,0.0,0.0,53,0.00,,,0.00,0.0,meteohub,2013-02-01 01:47:00,
2013-01-31 17:52:00,64.6,48.0,30.15,SW,231,0.0,0.0,55,0.00,,,0.00,0.0,meteohub,2013-02-01 01:52:00,
2013-01-31 17:57:00,63.1,46.8,30.15,SW,232,1.0,0.0,55,0.00,,,0.00,0.0,meteohub,2013-02-01 01:57:00,
2013-01-31 18:02:00,62.1,47.1,30.15,NW,324,3.0,3.0,58,0.00,,,0.00,0.0,meteohub,2013-02-01 02:02:00,
2013-01-31 18:07:00,61.2,47.1,30.15,North,355,0.0,5.0,60,0.00,,,0.00,0.0,meteohub,2013-02-01 02:07:00,
2013-01-31 18:12:00,60.4,47.3,30.15,North,0,0.0,5.0,62,0.00,,,0.00,0.0,meteohub,2013-02-01 02:12:00,
2013-01-31 18:17:00,60.1,47.8,30.15,North,0,0.0,5.0,64,0.00,,,0.00,0.0,meteohub,2013-02-01 02:17:00,
2013-01-31 18:22:00,59.5,47.8,30.15,North,9,0.0,5.0,65,0.00,,,0.00,0.0,meteohub,2013-02-01 02:22:00,
2013-01-31 18:27:00,59.2,47.5,30.15,North,9,0.0,5.0,65,0.00,,,0.00,0.0,meteohub,2013-02-01 02:27:00,
2013-01-31 18:32:00,59.0,47.7,30.15,North,9,0.0,5.0,66,0.00,,,0.00,0.0,meteohub,2013-02-01 02:32:00,
2013-01-31 18:37:00,58.8,47.5,30.15,North,0,0.0,4.0,66,0.00,,,0.00,0.0,meteohub,2013-02-01 02:37:00,
2013-01-31 18:42:00,58.6,47.3,30.15,North,5,0.0,4.0,66,0.00,,,0.00,0.0,meteohub,2013-02-01 02:42:00,
2013-01-31 18:47:00,58.6,47.3,30.15,NNE,13,6.0,6.0,66,0.00,,,0.00,0.0,meteohub,2013-02-01 02:47:00,
2013-01-31 18:52:00,58.8,47.5,30.16,North,11,6.0,6.0,66,0.00,,,0.00,0.0,meteohub,2013-02-01 02:52:00,
2013-01-31 18:57:00,58.8,47.5,30.16,NNW,346,3.0,7.0,66,0.00,,,0.00,0.0,meteohub,2013-02-01 02:57:00,
2013-01-31 19:02:00,58.8,47.8,30.16,North,9,5.0,10.0,67,0.00,,,0.00,0.0,meteohub,2013-02-01 03:02:00,
2013-01-31 19:07:00,58.5,47.5,30.16,North,355,3.0,10.0,67,0.00,,,0.00,0.0,meteohub,2013-02-01 03:07:00,
2013-01-31 19:12:00,57.9,47.5,30.16,North,355,3.0,10.0,68,0.00,,,0.00,0.0,meteohub,2013-02-01 03:12:00,
2013-01-31 19:17:00,57.7,47.3,30.16,North,5,0.0,8.0,68,0.00,,,0.00,0.0,meteohub,2013-02-01 03:17:00,
2013-01-31 19:22:00,57.4,46.9,30.16,NNW,347,4.0,8.0,68,0.00,,,0.00,0.0,meteohub,2013-02-01 03:22:00,
2013-01-31 19:27:00,57.4,47.3,30.16,North,355,3.0,8.0,69,0.00,,,0.00,0.0,meteohub,2013-02-01 03:27:00,
2013-01-31 19:32:00,57.2,46.8,30.16,NNW,348,6.0,8.0,68,0.00,,,0.00,0.0,meteohub,2013-02-01 03:32:00,
2013-01-31 19:37:00,57.4,46.9,30.16,NNW,346,2.0,8.0,68,0.00,,,0.00,0.0,meteohub,2013-02-01 03:37:00,
2013-01-31 19:42:00,57.2,46.8,30.16,NNW,341,1.0,8.0,68,0.00,,,0.00,0.0,meteohub,2013-02-01 03:42:00,
2013-01-31 19:47:00,57.0,46.6,30.16,NNW,341,0.0,8.0,68,0.00,,,0.00,0.0,meteohub,2013-02-01 03:47:00,
2013-01-31 19:52:00,56.8,46.4,30.16,NNW,341,0.0,5.0,68,0.00,,,0.00,0.0,meteohub,2013-02-01 03:52:00,
2013-01-31 19:57:00,56.7,45.9,30.16,NNW,341,0.0,3.0,67,0.00,,,0.00,0.0,meteohub,2013-02-01 03:57:00,
2013-01-31 20:02:00,56.5,46.0,30.16,NNW,341,0.0,0.0,68,0.00,,,0.00,0.0,meteohub,2013-02-01 04:02:00,
2013-01-31 20:07:00,55.8,46.0,30.16,NNW,341,0.0,3.0,70,0.00,,,0.00,0.0,meteohub,2013-02-01 04:07:00,
2013-01-31 20:12:00,55.4,46.2,30.17,NNW,341,0.0,3.0,71,0.00,,,0.00,0.0,meteohub,2013-02-01 04:12:00,
2013-01-31 20:17:00,55.2,46.8,30.17,NE,39,3.0,3.0,73,0.00,,,0.00,0.0,meteohub,2013-02-01 04:17:00,
2013-01-31 20:22:00,55.0,46.6,30.17,NE,37,5.0,7.0,73,0.00,,,0.00,0.0,meteohub,2013-02-01 04:22:00,
2013-01-31 20:27:00,54.9,46.4,30.17,NE,37,3.0,7.0,73,0.00,,,0.00,0.0,meteohub,2013-02-01 04:27:00,
2013-01-31 20:32:00,54.7,46.6,30.17,NE,38,0.0,6.0,74,0.00,,,0.00,0.0,meteohub,2013-02-01 04:32:00,
2013-01-31 20:37:00,54.7,46.6,30.17,NE,38,2.0,6.0,74,0.00,,,0.00,0.0,meteohub,2013-02-01 04:37:00,
2013-01-31 20:42:00,54.3,46.2,30.17,NE,38,1.0,5.0,74,0.00,,,0.00,0.0,meteohub,2013-02-01 04:42:00,
2013-01-31 20:47:00,54.1,46.4,30.17,NE,37,0.0,4.0,75,0.00,,,0.00,0.0,meteohub,2013-02-01 04:47:00,
2013-01-31 20:52:00,54.0,46.2,30.17,NE,38,0.0,4.0,75,0.00,,,0.00,0.0,meteohub,2013-02-01 04:52:00,
2013-01-31 20:57:00,54.0,46.2,30.17,NE,38,0.0,4.0,75,0.00,,,0.00,0.0,meteohub,2013-02-01 04:57:00,
2013-01-31 21:00:00,53.8,46.4,30.17,NE,38,0.0,4.0,76,0.00,,,0.00,0.0,meteohub,2013-02-01 05:00:00,
2013-01-31 21:01:00,53.8,46.4,30.17,NE,38,0.0,4.0,76,0.00,,,0.00,0.0,meteohub,2013-02-01 05:01:00,
2013-01-31 21:03:00,53.8,46.4,30.17,NE,37,0.0,4.0,76,0.00,,,0.00,0.0,meteohub,2013-02-01 05:03:00,
2013-01-31 21:08:00,53.6,46.2,30.17,NE,38,3.0,3.0,76,0.00,,,0.00,0.0,meteohub,2013-02-01 05:08:00,
2013-01-31 21:14:00,53.4,46.0,30.17,NE,37,0.0,1.0,76,0.00,,,0.00,0.0,meteohub,2013-02-01 05:14:00,
2013-01-31 21:19:00,53.4,46.0,30.17,NE,38,0.0,3.0,76,0.00,,,0.00,0.0,meteohub,2013-02-01 05:19:00,
2013-01-31 21:24:00,53.2,45.9,30.17,NE,37,0.0,3.0,76,0.00,,,0.00,0.0,meteohub,2013-02-01 05:24:00,
2013-01-31 21:29:00,52.9,45.9,30.17,NE,37,0.0,3.0,77,0.00,,,0.00,0.0,meteohub,2013-02-01 05:29:00,
2013-01-31 21:34:00,52.5,45.5,30.17,NE,38,0.0,1.0,77,0.00,,,0.00,0.0,meteohub,2013-02-01 05:34:00,
2013-01-31 21:39:00,52.3,45.3,30.17,NE,38,0.0,1.0,77,0.00,,,0.00,0.0,meteohub,2013-02-01 05:39:00,
2013-01-31 21:44:00,52.0,45.0,30.17,NE,37,0.0,0.0,77,0.00,,,0.00,0.0,meteohub,2013-02-01 05:44:00,
2013-01-31 21:49:00,51.6,44.6,30.17,NE,38,0.0,0.0,77,0.00,,,0.00,0.0,meteohub,2013-02-01 05:49:00,
2013-01-31 21:54:00,51.4,44.4,30.17,NE,37,0.0,0.0,77,0.00,,,0.00,0.0,meteohub,2013-02-01 05:54:00,
2013-01-31 21:59:00,51.1,44.4,30.17,NE,37,0.0,0.0,78,0.00,,,0.00,0.0,meteohub,2013-02-01 05:59:00,
2013-01-31 22:04:00,50.5,43.9,30.17,NE,37,0.0,0.0,78,0.00,,,0.00,0.0,meteohub,2013-02-01 06:04:00,
2013-01-31 22:09:00,50.4,43.7,30.17,NE,38,0.0,0.0,78,0.00,,,0.00,0.0,meteohub,2013-02-01 06:09:00,
2013-01-31 22:14:00,50.2,43.9,30.17,NE,38,0.0,0.0,79,0.00,,,0.00,0.0,meteohub,2013-02-01 06:14:00,
2013-01-31 22:19:00,49.8,43.5,30.17,NE,38,0.0,0.0,79,0.00,,,0.00,0.0,meteohub,2013-02-01 06:19:00,
2013-01-31 22:24:00,49.6,43.3,30.17,NE,38,0.0,0.0,79,0.00,,,0.00,0.0,meteohub,2013-02-01 06:24:00,
2013-01-31 22:29:00,49.5,43.5,30.17,NE,38,0.0,0.0,80,0.00,,,0.00,0.0,meteohub,2013-02-01 06:29:00,
2013-01-31 22:34:00,49.5,44.2,30.17,NE,37,0.0,1.0,82,0.00,,,0.00,0.0,meteohub,2013-02-01 06:34:00,
2013-01-31 22:39:00,49.5,44.2,30.17,NE,37,4.0,4.0,82,0.00,,,0.00,0.0,meteohub,2013-02-01 06:39:00,
2013-01-31 22:44:00,49.5,44.6,30.17,NE,37,0.0,4.0,83,0.00,,,0.00,0.0,meteohub,2013-02-01 06:44:00,
2013-01-31 22:49:00,49.5,44.6,30.17,NE,37,0.0,5.0,83,0.00,,,0.00,0.0,meteohub,2013-02-01 06:49:00,
2013-01-31 22:54:00,49.3,44.4,30.17,NE,37,0.0,5.0,83,0.00,,,0.00,0.0,meteohub,2013-02-01 06:54:00,
2013-01-31 22:59:00,49.3,44.4,30.17,NE,37,0.0,5.0,83,0.00,,,0.00,0.0,meteohub,2013-02-01 06:59:00,
2013-01-31 23:04:00,48.9,44.1,30.17,NE,37,0.0,3.0,83,0.00,,,0.00,0.0,meteohub,2013-02-01 07:04:00,
2013-01-31 23:09:00,48.9,44.2,30.17,NE,37,4.0,4.0,84,0.00,,,0.00,0.0,meteohub,2013-02-01 07:09:00,
2013-01-31 23:14:00,48.7,44.1,30.17,NE,37,0.0,4.0,84,0.00,,,0.00,0.0,meteohub,2013-02-01 07:14:00,
2013-01-31 23:19:00,48.7,44.1,30.17,NE,37,2.0,4.0,84,0.00,,,0.00,0.0,meteohub,2013-02-01 07:19:00,
2013-01-31 23:24:00,48.7,44.1,30.17,NE,37,0.0,4.0,84,0.00,,,0.00,0.0,meteohub,2013-02-01 07:24:00,
2013-01-31 23:29:00,48.7,44.1,30.17,NE,37,0.0,5.0,84,0.00,,,0.00,0.0,meteohub,2013-02-01 07:29:00,
2013-01-31 23:34:00,48.6,43.9,30.16,NE,37,0.0,5.0,84,0.00,,,0.00,0.0,meteohub,2013-02-01 07:34:00,
2013-01-31 23:39:00,48.6,43.9,30.16,NE,37,0.0,5.0,84,0.00,,,0.00,0.0,meteohub,2013-02-01 07:39:00,
2013-01-31 23:44:00,48.4,43.7,30.17,NE,37,0.0,5.0,84,0.00,,,0.00,0.0,meteohub,2013-02-01 07:44:00,
2013-01-31 23:49:00,48.4,43.7,30.16,NE,37,0.0,5.0,84,0.00,,,0.00,0.0,meteohub,2013-02-01 07:49:00,
2013-01-31 23:54:00,48.4,44.1,30.16,NE,37,0.0,5.0,85,0.00,,,0.00,0.0,meteohub,2013-02-01 07:54:00,
2013-01-31 23:59:00,48.2,43.5,30.17,NE,37,0.0,5.0,84,0.00,,,0.00,0.0,meteohub,2013-02-01 07:59:00,